Flag for French Polynesia Weather past 2 weeks in Papeete, Tahiti, French Polynesia

Now
72 °F

Passing clouds.


Feels Like: 72 °F
Forecast: 71 / 83 °F
Wind: 2 mph from Southeast

Location: Tahiti-Faaa

Current Time: Aug 1, 2014 at 5:57:06 AM

Latest Report: Aug 1, 2014 at 5:30 AM


Visibility: N/A

Pressure: 29.95 "Hg

Humidity: 78%

Dew point: 64 °F

Location of PapeeteLocation

Historic Weather in Papeete — Graph

°F

Papeete temperature yesterday

Maximum temperature yesterday: 82 °F (at 1:00 PM)
Minimum temperature yesterday: 72 °F (at 1:00 AM)
Average temperature yesterday: 76 °F

Past Weeks' High & Low Weather Summary

 TemperatureHumidityPressure
High86 °F (Jul 19, 11:30 AM)89% (Jul 19, 6:00 AM)30.07 "Hg (Jul 19, 6:00 AM)
Low68 °F (Jul 30, 4:00 AM)51% (Jul 29, 11:00 AM)29.83 "Hg (Jul 26, 2:30 AM)
Average78 °F71%29.96 "Hg
* Reported Jul 17 4:00 AM — Aug 1 4:30 AM, Papeete, Weather by CustomWeather, © 2014

Note: Actual official high and low records may vary slightly from our data, if they occured in-between our weather recording intervals... More about our weather records

Advertising

Papeete weather history for previous 24 hours

 ConditionsComfort  
Time TempWeatherWind HumidityBarometerVisibility
4:30 AM
Aug 1
72 °FPassing clouds.No wind78%29.92 "HgN/A
4:00 AM72 °FMild.5 mph78%29.95 "HgN/A
3:30 AM72 °FMild.3 mph78%29.95 "HgN/A
3:00 AM72 °FPassing clouds.2 mph78%29.95 "HgN/A
2:30 AM72 °FPassing clouds.1 mph78%29.95 "HgN/A
2:00 AM72 °FPassing clouds.No wind78%29.95 "HgN/A
1:30 AM72 °FPassing clouds.1 mph78%29.95 "HgN/A
1:00 AM72 °FPassing clouds.3 mph78%29.98 "HgN/A
12:00 AM73 °FPassing clouds.2 mph78%29.98 "HgN/A
11:30 PM
Jul 31
73 °FPassing clouds.1 mph78%30.01 "HgN/A
11:00 PM73 °FPassing clouds.3 mph78%30.01 "HgN/A
10:30 PM73 °FPassing clouds.2 mph78%30.01 "HgN/A
10:00 PM73 °FPassing clouds.1 mph78%30.01 "HgN/A
9:30 PM73 °FPassing clouds.3 mph78%30.01 "HgN/A
9:00 PM75 °FPassing clouds.2 mph74%30.01 "HgN/A
8:30 PM75 °FPassing clouds.3 mph74%30.01 "HgN/A
8:00 PM77 °FPassing clouds.3 mph69%30.01 "HgN/A
7:30 PM77 °FPartly cloudy.No wind69%29.98 "HgN/A
7:00 PM77 °FPassing clouds.1 mph69%29.98 "HgN/A
6:30 PM77 °FPassing clouds.5 mph69%29.98 "HgN/A
6:00 PM79 °FPartly cloudy.7 mph70%29.98 "HgN/A
5:30 PM79 °FBroken clouds.9 mph65%29.98 "HgN/A
5:00 PM81 °FBroken clouds.8 mph62%29.98 "HgN/A
4:30 PM81 °FScattered showers. Broken clouds.7 mph62%29.98 "HgN/A
4:00 PM81 °FScattered showers. Broken clouds.8 mph66%29.98 "HgN/A
3:30 PM81 °FScattered showers. Broken clouds.9 mph66%29.98 "HgN/A
3:00 PM81 °FScattered showers. Broken clouds.8 mph66%29.98 "HgN/A
2:30 PM81 °FScattered showers. Broken clouds.6 mph62%29.98 "HgN/A
2:00 PM82 °FScattered showers. Broken clouds.8 mph58%29.98 "HgN/A
1:30 PM81 °FScattered showers. Broken clouds.6 mph66%30.01 "HgN/A
1:00 PM82 °FScattered showers. Partly sunny.2 mph58%30.01 "HgN/A
12:30 PM81 °FScattered showers. Partly sunny.7 mph62%30.01 "HgN/A
12:00 PM81 °FScattered showers. Partly sunny.12 mph62%30.04 "HgN/A
11:30 AM81 °FPartly sunny.8 mph66%30.04 "HgN/A
11:00 AM79 °FScattered clouds.9 mph70%30.04 "HgN/A
10:30 AM81 °FPassing clouds.6 mph66%30.07 "HgN/A
10:00 AM79 °FPartly sunny.6 mph65%30.07 "HgN/A
9:30 AM79 °FScattered clouds.6 mph65%30.07 "HgN/A
9:00 AM79 °FPartly sunny.5 mph65%30.07 "HgN/A
8:30 AM77 °FPartly sunny.3 mph69%30.07 "HgN/A
8:00 AM79 °FPassing clouds.No wind61%30.07 "HgN/A
7:30 AM77 °FScattered clouds.1 mph65%30.04 "HgN/A
7:00 AM73 °FScattered clouds.2 mph78%30.04 "HgN/A
6:30 AM73 °FPassing clouds.5 mph78%30.04 "HgN/A
6:00 AM73 °FPassing clouds.3 mph78%30.04 "HgN/A
5:30 AM72 °FPassing clouds.2 mph83%30.01 "HgN/A
5:00 AM72 °FPassing clouds.No wind78%30.01 "HgN/A
Weather by CustomWeather, © 2014

See weather overviewHow to use our weather pages